DELTA 1 DEB, 7038

Orbit data source: Space-Track

DELTA 1 DEB, 7038 is space debris in SSO originally from a launch on Tue, 06 Nov 1973 UTC launched from the Air Force Western Test Range (AFWTR). Debris objects in space refer to the collection of defunct objects orbiting the Earth. Examples of debris include non-operational satellites, rocket bodies, and fragments generated from explosions, collisions, or faulty payload assembly.

Loading next visibility...
Identifier
7038, 1973-086AE
Orbit
SSO
Country
Flag of USUS
Related business
Manufacturer
Unknown
Mission
Spacecraft
Bus & Motor
Unknown
Mass
Unknown
Launch date (UTC)
1973-11-06 (52 years ago)
Launch vehicle
Unknown
Launch site
Air Force Western Test Range (AFWTR)
Object type
Payload
Rocket body
Debris
Shape & HBR
Unknown shape, 0.2 m
Radar Cross Section
Medium (>0.1 m² and <1 m²)

Expand to show TLE details & history
Last TLE update: 1 day ago

TLE from 1 day ago
0 DELTA 1 DEB
1 07038U 73086AE  25346.04839392  .00000095  00000-0  12128-2 0  9990
2 07038 101.8901 175.7248 0125964 122.5418   1.4768 12.24401642323600
Epoch: 2025-12-12T01:09Z
TLE epoch observation values (Epoch: 2025-12-12T01:09:41.234Z)
Latitude
54.26026°
Longitude
-85.76588°
Altitude
1,481.996 km
Speed
7.172 km/s
True Right ascension
00h 50m 36s
True Declination
54° 06' 44"
Sunlit
Object was in daylight at epoch
Visualization orbit readout
Latitude
Unknown
Longitude
Unknown
Altitude
Unknown
Speed
Unknown
Apparent Right ascension
Unknown
Apparent Declination
Unknown
Sunlit
N/A
Visualization observer readout
Local Sidereal Time
00:34:22
Azimuth
Unknown
Elevation
Unknown
Doppler factor
Unknown
Orbital elements
Apogee altitude
1,671.146 km
Perigee altitude
1,470.885 km
Semi-major axis
7,949.152 km
Eccentricity
0.0126
Inclination
101.8901°
RAAN
175.7248°
Arg. of periapsis
122.5418°
True anomaly
1.5146°
Mean anomaly
1.4768°
Eccentric anomaly
1.49564°
Mean motion
3.0624 °/min
Orbital period
117.55 mins
BSTAR
0.0012128
Loading maneuver chart data...
Computing Atmospheric mass density...
Loading historical data...
Loading historical data...
Loading historical data...
Loading historical data...
Loading historical data...
Loading historical data...
Loading historical data...

Documentation

Showing up to 5 results
|